Weather History for McConnell AFB, KS

Change the Weather History Date:

Saturday, October 6, 2012

  Actual Average Record
Temperature  
Mean Temperature 44 °F -  
Max Temperature 48 °F 71 °F 85 °F (2007)
Min Temperature 41 °F 49 °F 35 °F (2001)
Degree Days  
Heating Degree Days 21    
Moisture  
Dew Point 32 °F    
Average Humidity 62    
Maximum Humidity 73    
Minimum Humidity 42    
Precipitation  
Precipitation 0.00 in - - ()
Sea Level Pressure  
Sea Level Pressure 30.35 in    
Wind  
Wind Speed 9 mph (NNE)    
Max Wind Speed 22 mph    
Max Gust Speed 25 mph    
Visibility 10 miles    
Events Rain    
Averages and records for this station are not official NWS values.
T = Trace of Precipitation, MM = Missing Value Source: NWS Daily Summary

Daily Weather History Graph

Daily Weather History Graph

Search for Another Location

Airport:

Trip Planner

Search our weather history database for the weather conditions in past years. The results will help you decide how hot, cold, wet, or windy it might be!

Date:

Astronomy

Oct. 06, 2012 Rise Set
Actual Time 7:29 AM CDT 7:03 PM CDT
Civil Twilight 7:03 AM CDT 7:30 PM CDT
Nautical Twilight 6:32 AM CDT 8:00 PM CDT
Astronomical Twilight 6:02 AM CDT 8:30 PM CDT
Moon 11:25 PM CDT (10/6) 1:19 PM CDT (10/6)
Length of Visible Light 12h 26m
Length of Day
11h 34m
Waning Gibbous, 65% of the Moon is Illuminated
Oct 6
Waning Gibbous
Oct 8
Last Quarter
Oct 15
New
Oct 21
First Quarter
Oct 29
Full

Hourly Weather History & Observations

Time (CDT) Temp. Windchill Dew Point Humidity Pressure Visibility Wind Dir Wind Speed Gust Speed Precip Events Conditions
12:55 AM 41.7 °F 39.8 °F 31.6 °F 67% 30.33 in 10.0 mi NE 3.5 mph - N/A   Partly Cloudy
1:55 AM 43.3 °F 40.7 °F 33.4 °F 68% 30.34 in 10.0 mi North 4.6 mph - N/A   Clear
2:55 AM 44.1 °F 40.8 °F 33.6 °F 67% 30.33 in 10.0 mi North 5.8 mph - N/A   Overcast
3:55 AM 44.1 °F 39.5 °F 33.8 °F 67% 30.30 in 10.0 mi NNE 8.1 mph - N/A   Mostly Cloudy
4:55 AM 44.2 °F 38.8 °F 32.7 °F 64% 30.30 in 10.0 mi NNE 10.4 mph - N/A   Mostly Cloudy
5:55 AM 44.2 °F 39.7 °F 32.4 °F 63% 30.30 in 10.0 mi NNE 8.1 mph - N/A   Mostly Cloudy
6:55 AM 44.6 °F 43.1 °F 32.7 °F 63% 30.31 in 10.0 mi NNE 3.5 mph - N/A   Overcast
7:55 AM 45.0 °F 40.1 °F 32.7 °F 62% 30.31 in 10.0 mi North 9.2 mph - N/A   Mostly Cloudy
8:55 AM 45.0 °F 40.1 °F 34.3 °F 66% 30.35 in 10.0 mi NNE 9.2 mph - N/A   Overcast
9:32 AM 44.6 °F 39.7 °F 33.8 °F 66% 30.35 in 10.0 mi NE 9.2 mph - N/A   Light Drizzle
9:41 AM 44.6 °F 39.2 °F 32.0 °F 61% 30.36 in 10.0 mi NE 10.4 mph - N/A   Scattered Clouds
9:55 AM 45.7 °F 40.2 °F 32.4 °F 60% 30.36 in 10.0 mi NE 11.5 mph - 0.00 in   Scattered Clouds
10:55 AM 46.6 °F - 28.9 °F 50% 30.39 in 10.0 mi NE 10.4 mph - N/A   Clear
11:55 AM 47.8 °F - 25.5 °F 42% 30.39 in 10.0 mi ENE 12.7 mph - N/A   Clear
12:08 PM 46.4 °F 39.2 °F 26.6 °F 46% 30.39 in 10.0 mi NNE 18.4 mph - N/A Rain Light Rain
12:24 PM 44.6 °F 36.1 °F 28.4 °F 53% 30.40 in 10.0 mi NE 21.9 mph - N/A   Clear
12:55 PM 45.3 °F 38.1 °F 28.6 °F 52% 30.39 in 10.0 mi NE 17.3 mph 25.3 mph 0.00 in   Clear
1:30 PM 42.8 °F 34.3 °F 33.8 °F 70% 30.39 in 10.0 mi NNE 19.6 mph - N/A Rain Light Rain
1:55 PM 42.3 °F 33.3 °F 34.2 °F 73% 30.38 in 10.0 mi NNE 20.7 mph - 0.00 in   Light Drizzle
2:55 PM 43.7 °F 36.9 °F 32.4 °F 64% 30.35 in 10.0 mi NE 13.8 mph - 0.00 in   Scattered Clouds
3:55 PM 44.4 °F 40.0 °F 30.7 °F 59% 30.35 in 10.0 mi NNE 8.1 mph - N/A   Overcast
4:55 PM 45.0 °F 40.6 °F 29.8 °F 55% 30.34 in 10.0 mi NNE 8.1 mph - N/A   Mostly Cloudy
5:55 PM 44.6 °F 38.8 °F 29.3 °F 55% 30.34 in 10.0 mi North 11.5 mph - N/A   Overcast
6:55 PM 43.7 °F 37.7 °F 31.3 °F 62% 30.34 in 10.0 mi North 11.5 mph - N/A   Mostly Cloudy
7:55 PM 43.2 °F 37.0 °F 32.5 °F 66% 30.35 in 10.0 mi North 11.5 mph - N/A   Overcast
8:55 PM 42.8 °F 37.0 °F 32.7 °F 68% 30.36 in 10.0 mi North 10.4 mph - N/A   Overcast
9:55 PM 41.9 °F 37.5 °F 32.5 °F 69% 30.36 in 10.0 mi NNW 6.9 mph - N/A   Scattered Clouds
10:55 PM 42.3 °F 36.3 °F 32.4 °F 68% 30.36 in 10.0 mi NW 10.4 mph - N/A   Mostly Cloudy
11:55 PM 42.6 °F 36.3 °F 31.8 °F 66% 30.36 in 10.0 mi North 11.5 mph - N/A   Mostly Cloudy